Home > Weather > Arlington > Past weeks

Flag for USA Weather for the Past 2 Weeks in Arlington, Texas, USA

Now
61 °F

Sunny.


Feels Like: 61 °F
Forecast: 54 / 83 °F
Wind: No wind

Location: Arlington Municipal Airport

Current Time: May 6, 2016 at 9:07:06 AM

Latest Report: May 6, 2016 at 7:53 AM


Visibility: 10 mi

Pressure: 30.07 "Hg

Humidity: 83%

Dew Point: 56 °F

Location of ArlingtonLocation

Historic Weather in Arlington — Graph

°F

Arlington Temperature Yesterday

Maximum temperature yesterday: 84 °F (at 3:53 PM)
Minimum temperature yesterday: 55 °F (at 5:53 AM)
Average temperature yesterday: 70 °F

High & Low Weather Summary for the Past Weeks

 TemperatureHumidityPressure
High87 °F (Apr 25, 3:53 PM)90% (Apr 27, 6:53 AM)30.14 "Hg (Apr 27, 6:53 AM)
Low49 °F (May 3, 4:53 AM)22% (Apr 27, 4:53 PM)29.51 "Hg (Apr 29, 5:53 PM)
Average70 °F63%29.88 "Hg
* Reported Apr 21 7:53 AM — May 6 7:53 AM, Arlington, Weather by CustomWeather, © 2016

Note: Actual official high and low records may vary slightly from our data, if they occured in-between our weather recording intervals... More about our weather records

Advertising

Arlington Weather History for the Previous 24 Hours

Scroll right to see more
 ConditionsComfort  
Time TempWeatherWind HumidityBarometerVisibility
7:53 AM
Fri, May 6
61 °FSunny.No wind83%30.07 "Hg10 mi
6:53 AM53 °FClear.No wind86%30.05 "Hg10 mi
5:53 AM54 °FClear.No wind86%30.04 "Hg10 mi
4:53 AM54 °FClear.No wind86%30.02 "Hg10 mi
3:53 AM55 °FClear.No wind87%30.01 "Hg10 mi
2:53 AM55 °FClear.No wind87%30.01 "Hg10 mi
1:53 AM57 °FClear.No wind83%30.02 "Hg10 mi
12:53 AM57 °FClear.No wind83%30.03 "Hg10 mi
11:53 PM
Thu, May 5
59 °FClear.No wind78%30.03 "Hg10 mi
10:53 PM62 °FClear.No wind70%30.03 "Hg10 mi
9:53 PM63 °FClear.No wind70%30.01 "Hg10 mi
8:53 PM66 °FSunny.No wind65%29.98 "Hg10 mi
7:53 PM76 °FSunny.7 mph40%29.96 "Hg10 mi
6:53 PM82 °FSunny.8 mph27%29.96 "Hg10 mi
5:53 PM84 °FSunny.9 mph24%29.97 "Hg10 mi
4:53 PM84 °FSunny.10 mph24%29.98 "Hg10 mi
3:53 PM84 °FSunny.9 mph25%30.00 "Hg10 mi
2:53 PM83 °FSunny.8 mph24%30.02 "Hg10 mi
1:53 PM83 °FSunny.10 mph24%30.04 "Hg10 mi
12:53 PM82 °FSunny.6 mph25%30.06 "Hg10 mi
11:53 AM80 °FSunny.5 mph27%30.08 "Hg10 mi
10:53 AM77 °FSunny.No wind31%30.09 "Hg10 mi
9:53 AM74 °FSunny.No wind37%30.11 "Hg10 mi
Weather by CustomWeather, © 2016

See weather overviewHow to use our weather pages